Volver al catálogo

SACI 1

ActivoCienciaSSO
NORAD 25941·PAYLOAD·🇧🇷 Brazil

Lanzado Oct 14, 1999 desde Taiyuan Satellite Launch Center

Loading…

Próximos Pases (próximas 24 horas)

TLE

ActualizadoSource: Space-Track

Época: Sep 14, 2026, 09:23 UTC

1 25941U 99057B   26257.39152911  .00000264  00000-0  72645-4 0  9994
2 25941  98.6273 308.7812 0008804  33.5976 326.5777 14.54971660425618

Sigue SACI 1 en tiempo real con AllMySat

Download on the App Store